Williams, AZ

12:27 AM MST on December 06, 2016 (GMT -0700)
Grand Canyon National Park

Weather History for KGCN - August, 2013

Change the Weather History Date:

Tuesday, August 6, 2013

  Actual Average Record
Temperature  
Mean Temperature 65 °F -  
Max Temperature 73 °F 81 °F 92 °F (1981)
Min Temperature 57 °F 49 °F 42 °F (2011)
Growing Degree Days 15 (Base 50)    
Moisture  
Dew Point 48 °F    
Average Humidity 59    
Maximum Humidity 81    
Minimum Humidity 38    
Precipitation  
Precipitation 0.01 in - - ()
Sea Level Pressure  
Sea Level Pressure 30.00 in    
Wind  
Wind Speed 2 mph (South)    
Max Wind Speed 10 mph    
Max Gust Speed -    
Visibility 10 miles    
Events Rain    
Averages and records for this station are not official NWS values.
T = Trace of Precipitation, MM = Missing Value Source: NWS Daily Summary

Daily Weather History Graph

Daily Weather History Graph

Search for Another Location

Airport or City:

Trip Planner

Search our weather history database for the weather conditions in past years. The results will help you decide how hot, cold, wet, or windy it might be!

Date:

Astronomy

Aug. 06, 2013 Rise Set
Actual Time 5:40 AM MST 7:28 PM MST
Civil Twilight 5:12 AM MST 7:55 PM MST
Nautical Twilight 4:38 AM MST 8:29 PM MST
Astronomical Twilight 4:02 AM MST 9:05 PM MST
Moon 5:33 AM MST 7:07 PM MST
Length of Visible Light 14h 43m
Length of Day
13h 47m
Waning Crescent, 0% of the Moon is Illuminated
Aug 6
Waning Crescent
Aug 6
New
Aug 14
First Quarter
Aug 20
Full
Aug 28
Last Quarter

Hourly Weather History & Observations

Time (MST) Temp. Dew Point Humidity Pressure Visibility Wind Dir Wind Speed Gust Speed Precip Events Conditions
12:54 AM 62.1 °F 39.9 °F 44% 29.93 in 10.0 mi Calm Calm - N/A   Overcast
1:54 AM 64.0 °F 43.0 °F 46% 29.90 in 10.0 mi Calm Calm - N/A   Mostly Cloudy
2:54 AM 61.0 °F 44.1 °F 54% 29.89 in 10.0 mi Calm Calm - N/A   Scattered Clouds
3:54 AM 60.1 °F 45.0 °F 57% 29.92 in 10.0 mi Calm Calm - N/A   Overcast
4:54 AM 60.1 °F 45.0 °F 57% 29.93 in 10.0 mi Calm Calm - N/A   Mostly Cloudy
5:54 AM 59.0 °F 46.0 °F 62% 29.95 in 10.0 mi Calm Calm - N/A   Partly Cloudy
6:54 AM 61.0 °F 45.0 °F 56% 29.97 in 10.0 mi Calm Calm - N/A   Scattered Clouds
7:54 AM 64.9 °F 45.0 °F 48% 29.99 in 10.0 mi South 4.6 mph - N/A   Scattered Clouds
8:54 AM 68.0 °F 46.9 °F 47% 29.99 in 10.0 mi SSW 5.8 mph - N/A   Mostly Cloudy
9:54 AM 70.0 °F 46.0 °F 42% 30.02 in 10.0 mi Variable 3.5 mph - N/A   Mostly Cloudy
10:54 AM 72.0 °F 45.0 °F 38% 30.01 in 10.0 mi South 9.2 mph - N/A   Clear
11:54 AM 73.0 °F 46.9 °F 39% 30.02 in 10.0 mi SSW 9.2 mph - N/A   Clear
12:54 PM 72.0 °F 45.0 °F 38% 30.01 in 10.0 mi SE 10.4 mph - N/A   Mostly Cloudy
1:54 PM 64.9 °F 50.0 °F 58% 30.03 in 10.0 mi SE 5.8 mph - 0.00 in   Overcast
2:54 PM 63.0 °F 52.0 °F 67% 30.06 in 10.0 mi South 9.2 mph - 0.01 in Rain Light Rain
3:54 PM 63.0 °F 51.1 °F 65% 30.06 in 10.0 mi SW 5.8 mph - 0.00 in Rain Light Rain
4:54 PM 62.1 °F 52.0 °F 70% 30.05 in 10.0 mi South 4.6 mph - 0.00 in Rain Light Rain
5:54 PM 63.0 °F 51.1 °F 65% 30.04 in 10.0 mi Calm Calm - 0.00 in   Overcast
6:54 PM 61.0 °F 52.0 °F 72% 30.02 in 10.0 mi SSE 3.5 mph - 0.00 in   Overcast
7:54 PM 60.1 °F 50.0 °F 69% 30.01 in 10.0 mi Calm Calm - N/A   Overcast
8:54 PM 60.1 °F 51.1 °F 72% 30.02 in 10.0 mi Calm Calm - 0.00 in Rain Light Rain
9:54 PM 57.9 °F 52.0 °F 81% 30.03 in 10.0 mi Calm Calm - 0.00 in   Overcast
10:54 PM 57.9 °F 52.0 °F 81% 30.03 in 10.0 mi Calm Calm - 0.00 in   Overcast
11:54 PM 57.9 °F 52.0 °F 81% 30.03 in 10.0 mi NE 5.8 mph - 0.00 in   Overcast